ROMMA est une association bénévole à but non lucratif. Votre soutien est indispensable : ADHERER à ROMMA ou FAIRE un DON

Val-d'Isère - (73, Savoie)

Haute-Maurienne (1850 m)   Longitude: 6° 58' 52'' E   Latitude: 45° 26' 53'' N Station partenaire n°93
 

Détail journalier du     <<     >>

Température Precipitation Humidité Vent Dir Rafale Dir. rafale Ensol.
Heure (°C) (mm) (%) (km/h) (km/h) (min)
01:00 3.40708SO26NNE0
02:00 2.707711OSO40NO0
03:00 2.50807ENE31O0
04:00 2.70829E29ONO0
05:00 2.70859E31ONO0
06:00 2.40.4867S26ONO0
07:00 2.808312E24ESE0
08:00 3.80778E18E0
09:00 6.00646E24NO0
10:00 7.30597NO27NO60
11:00 8.40556ESE27NNO60
12:00 8.305410O29ONO60
13:00 7.006014NO45NNO60
14:00 7.10.26321NO47NO60
15:00 6.206722NO48NNO30
16:00 5.707117NO45NNO0
17:00 6.606811NO37NO0
18:00 5.107813NO37NO60
19:00 5.40748NE26NO0
20:00 4.80766NE26O0
21:00 4.90755E21NNO0
22:00 4.60766E19NE0
23:00 5.10748E16SSE0
minuit 4.70786E19SO0

Graphique du 23-04-2019

 

Serveur OMMA